Jackson, KY

12:13 AM EDT on September 23, 2017 (GMT -0400)
Carroll

Weather History for KJKL - October, 2010

Change the Weather History Date:

Thursday, October 7, 2010

  Actual Average Record
Temperature  
Mean Temperature 62 °F 61 °F  
Max Temperature 75 °F 71 °F 88 °F (2007)
Min Temperature 48 °F 50 °F 33 °F (2001)
Degree Days  
Heating Degree Days 3 6  
Month to date heating degree days 64 37  
Since 1 July heating degree days 89 89  
Cooling Degree Days 0 1  
Month to date cooling degree days 0 13  
Year to date cooling degree days 1481 1134  
Growing Degree Days 12 (Base 50)    
Moisture  
Dew Point 43 °F    
Average Humidity 54    
Maximum Humidity 71    
Minimum Humidity 36    
Precipitation  
Precipitation 0.00 in 0.10 in 1.82 in (2014)
Month to date precipitation 0.12 0.71  
Year to date precipitation 34.96 37.72  
Snow  
Snow 0.00 in 0.00 in - ()
Month to date snowfall 0.0 0.0  
Since 1 July snowfall 0.0 0.0  
Since 1 September snowfall 0.0 0.0  
Snow Depth 0.00 in    
Sea Level Pressure  
Sea Level Pressure 30.06 in    
Wind  
Wind Speed 3 mph (West)    
Max Wind Speed 9 mph    
Max Gust Speed 13 mph    
Visibility 10 miles    
Events      
T = Trace of Precipitation, MM = Missing Value Source: NWS Daily Summary

Daily Weather History Graph

Daily Weather History Graph

Search for Another Location

Airport or City:

Trip Planner

Search our weather history database for the weather conditions in past years. The results will help you decide how hot, cold, wet, or windy it might be!

Date:

Astronomy

Oct. 07, 2010 Rise Set
Actual Time 7:34 AM EDT 7:07 PM EDT
Civil Twilight 7:07 AM EDT 7:33 PM EDT
Nautical Twilight 6:37 AM EDT 8:03 PM EDT
Astronomical Twilight 6:07 AM EDT 8:34 PM EDT
Moon 7:22 AM EDT (10/7) 6:45 PM EDT (10/7)
Length of Visible Light 12h 25m
Length of Day
11h 33m
Waning Crescent, 0% of the Moon is Illuminated
Oct 7
Waning Crescent
Oct 7
New
Oct 14
First Quarter
Oct 22
Full
Oct 30
Last Quarter

Hourly Weather History & Observations

Time (EDT) Temp. Dew Point Humidity Pressure Visibility Wind Dir Wind Speed Gust Speed Precip Events Conditions
12:53 AM 54.0 °F 37.9 °F 55% 30.05 in 10.0 mi WSW 4.6 mph - N/A   Clear
1:53 AM 53.1 °F 37.9 °F 57% 30.04 in 10.0 mi SW 3.5 mph - N/A   Clear
2:53 AM 52.0 °F 37.9 °F 59% 30.04 in 10.0 mi SW 3.5 mph - N/A   Clear
3:53 AM 52.0 °F 37.9 °F 59% 30.02 in 10.0 mi SW 3.5 mph - N/A   Clear
4:53 AM 51.1 °F 39.0 °F 63% 30.02 in 10.0 mi Calm Calm - N/A   Clear
5:53 AM 50.0 °F 39.0 °F 66% 30.03 in 10.0 mi Calm Calm - N/A   Clear
6:53 AM 50.0 °F 39.0 °F 66% 30.04 in 10.0 mi Calm Calm - N/A   Clear
7:53 AM 48.9 °F 39.9 °F 71% 30.04 in 10.0 mi Variable 3.5 mph - N/A   Clear
8:53 AM 54.0 °F 41.0 °F 62% 30.06 in 10.0 mi Variable 3.5 mph - N/A   Clear
9:53 AM 57.9 °F 43.0 °F 58% 30.07 in 10.0 mi Variable 4.6 mph - N/A   Clear
10:53 AM 62.1 °F 44.1 °F 52% 30.10 in 10.0 mi Variable 5.8 mph - N/A   Clear
11:53 AM 64.9 °F 45.0 °F 48% 30.11 in 10.0 mi Calm Calm - N/A   Clear
12:53 PM 69.1 °F 46.0 °F 44% 30.09 in 10.0 mi Calm Calm - N/A   Clear
1:53 PM 70.0 °F 46.9 °F 44% 30.07 in 10.0 mi Calm Calm - N/A   Clear
2:53 PM 73.0 °F 48.0 °F 41% 30.05 in 10.0 mi Variable 3.5 mph - N/A   Clear
3:53 PM 73.9 °F 46.9 °F 38% 30.04 in 10.0 mi NW 8.1 mph - N/A   Clear
4:53 PM 75.0 °F 46.0 °F 36% 30.04 in 10.0 mi Variable 4.6 mph - N/A   Clear
5:53 PM 73.9 °F 46.0 °F 37% 30.04 in 10.0 mi WNW 5.8 mph - N/A   Clear
6:53 PM 71.1 °F 45.0 °F 39% 30.04 in 10.0 mi NW 4.6 mph - N/A   Clear
7:53 PM 70.0 °F 44.1 °F 39% 30.05 in 10.0 mi NW 4.6 mph - N/A   Clear
8:53 PM 68.0 °F 43.0 °F 40% 30.06 in 10.0 mi NW 4.6 mph - N/A   Clear
9:53 PM 64.0 °F 43.0 °F 46% 30.08 in 10.0 mi Calm Calm - N/A   Clear
10:53 PM 62.1 °F 45.0 °F 53% 30.08 in 10.0 mi Calm Calm - N/A   Clear
11:53 PM 61.0 °F 46.9 °F 60% 30.09 in 10.0 mi Calm Calm - N/A   Clear